Location,LocationNum,Date,Time,C 0.3-0.5um,C 0.5-0.7um,C 0.7-1.0um,C 1.0-2.0um,C 2.0-5.0um,C >5.0um,Temperature,Humidity,Flags,Liters
Label 1   ,1,03/10/09,09:43:14,106625,6106,1137,727,280,20,25,45,1,2.832
Label 1   ,2,03/10/09,09:44:15,105561,6018,1108,741,309,37,25,45,1,2.832
Label 1   ,3,03/10/09,09:45:15,103315,5972,1140,700,286,30,25,45,1,2.832
Label 1   ,4,03/10/09,09:46:15,104317,6091,1119,676,267,19,25,45,1,2.832
Label 1   ,5,03/10/09,09:47:15,107425,6064,1096,725,265,18,25,46,1,2.832
Label 1   ,6,03/10/09,09:48:15,110375,6034,1111,713,286,21,22,46,1,2.832
Label 1   ,7,03/10/09,09:49:15,109465,6203,1129,721,274,26,22,46,1,2.832
Label 1   ,8,03/10/09,09:50:16,108918,6009,1104,729,284,18,24,46,1,2.832
Label 1   ,9,03/10/09,09:51:16,106477,6163,1150,724,282,16,23,45,1,2.832
Label 1   ,10,03/10/09,09:52:16,107923,6116,1113,708,272,15,22,45,1,2.832
Label 1   ,11,03/10/09,09:53:16,108915,6333,1187,724,278,22,22,45,1,2.832
Label 1   ,12,03/10/09,09:54:16,109205,6200,1128,714,293,20,21,45,1,2.832
Label 1   ,13,03/10/09,09:55:16,108960,6285,1196,755,290,18,23,45,1,2.832
Label 1   ,14,03/10/09,09:56:16,108805,6274,1197,745,297,19,22,44,1,2.832
Label 1   ,15,03/10/09,09:57:17,109639,6379,1182,735,276,22,22,45,1,2.832
Label 1   ,16,03/10/09,09:58:17,109607,6333,1196,738,301,18,23,44,1,2.832
Label 1   ,17,03/10/09,09:59:17,109502,6332,1210,757,301,16,24,44,1,2.832
Label 1   ,18,03/10/09,10:00:17,110217,6251,1176,764,303,20,25,43,1,2.832
Label 1   ,19,03/10/09,10:01:17,109722,6092,1168,757,447,73,26,42,1,2.832
Label 1   ,20,03/10/09,10:02:17,111412,6315,1151,747,286,17,24,42,1,2.832
Label 1   ,21,03/10/09,10:03:18,109538,6201,1168,756,262,11,23,41,1,2.832
Label 1   ,22,03/10/09,10:04:18,113649,6287,1184,727,311,13,21,43,1,2.832
Label 1   ,23,03/10/09,10:05:18,113230,6151,1158,753,284,14,26,42,1,2.832
Label 1   ,24,03/10/09,10:06:18,112354,6093,1141,723,317,21,22,42,1,2.832
Label 1   ,25,03/10/09,10:07:18,107282,5966,1113,725,259,12,25,41,1,2.832
Label 1   ,26,03/10/09,10:08:18,108056,6061,1178,714,277,9.5,24,40,1,2.832
Label 1   ,27,03/10/09,10:09:19,108653,6024,1127,736,287,7.8,25,41,1,2.832
Label 1   ,28,03/10/09,10:10:19,106845,6007,1165,708,243,11,25,40,1,2.832
Label 1   ,29,03/10/09,10:11:19,108962,6070,1160,733,254,8.1,25,40,1,2.832
Label 1   ,30,03/10/09,10:12:19,108541,6153,1178,716,255,9.2,23,40,1,2.832
Label 1   ,31,03/10/09,10:13:19,111193,6267,1189,737,289,19,24,41,1,2.832
Label 1   ,32,03/10/09,10:14:19,105549,5874,1143,714,263,11,25,39,1,2.832
Label 1   ,33,03/10/09,10:15:20,106229,5988,1117,718,261,10,26,38,1,2.832
Label 1   ,34,03/10/09,10:16:20,106203,5987,1158,747,259,17,23,38,1,2.832
Label 1   ,35,03/10/09,10:17:20,106240,5994,1141,721,272,12,26,38,1,2.832
Label 1   ,36,03/10/09,10:18:20,107484,5966,1179,707,242,12,25,38,1,2.832
Label 1   ,37,03/10/09,10:19:20,107415,6100,1185,744,273,13,25,37,1,2.832
Label 1   ,38,03/10/09,10:20:20,107368,6009,1164,744,261,13,25,37,1,2.832
Label 1   ,39,03/10/09,10:21:21,107406,5955,1146,746,261,14,25,37,1,2.832
Label 1   ,40,03/10/09,10:22:21,109692,6154,1166,735,257,11,24,37,1,2.832
Label 1   ,41,03/10/09,10:23:21,109918,6130,1185,739,253,8.5,27,37,1,2.832
Label 1   ,42,03/10/09,10:24:21,111790,6174,1154,750,259,10,24,37,1,2.832
Label 1   ,43,03/10/09,10:25:21,113088,6307,1180,756,248,7.4,22,38,1,2.832
Label 1   ,44,03/10/09,10:26:21,112207,6252,1164,742,254,6.4,25,37,1,2.832
Label 1   ,45,03/10/09,10:27:22,115467,6383,1176,772,255,12,22,38,1,2.832
Label 1   ,46,03/10/09,10:28:22,119376,6676,1244,762,298,9.9,20,39,1,2.832
Label 1   ,47,03/10/09,10:29:22,117908,6571,1214,794,263,11,22,38,1,2.832
Label 1   ,48,03/10/09,10:30:22,117307,6530,1260,767,262,16,20,37,1,2.832
Label 1   ,49,03/10/09,10:31:22,117035,6558,1237,762,280,15,20,39,1,2.832
Label 1   ,50,03/10/09,10:32:22,119866,6686,1288,795,262,8.8,22,37,1,2.832
Label 1   ,51,03/10/09,10:33:23,119308,6701,1242,785,277,11,21,38,1,2.832
Label 1   ,52,03/10/09,10:34:23,119764,6674,1270,784,242,9.5,25,37,1,2.832
Label 1   ,53,03/10/09,10:35:23,120787,6838,1301,820,260,9.5,25,38,1,2.832
Label 1   ,54,03/10/09,10:36:23,119254,6775,1346,822,226,6.4,26,37,1,2.832
Label 1   ,55,03/10/09,10:37:23,123046,6933,1356,801,236,6.7,25,37,1,2.832
Label 1   ,56,03/10/09,10:38:23,126386,7186,1319,836,248,7.1,22,38,1,2.832
Label 1   ,57,03/10/09,10:39:24,123982,7041,1345,853,245,9.5,23,37,1,2.832
Label 1   ,58,03/10/09,10:40:24,125693,7171,1373,822,276,6.7,24,37,1,2.832
Label 1   ,59,03/10/09,10:41:24,123801,6927,1301,800,261,10,24,36,1,2.832
Label 1   ,60,03/10/09,10:42:24,123951,6971,1276,783,271,11,24,36,1,2.832
Label 1   ,61,03/10/09,10:43:24,124708,7069,1314,800,267,14,21,36,1,2.832
Label 1   ,62,03/10/09,10:44:24,125782,7014,1369,827,274,9.9,23,38,1,2.832
Label 1   ,63,03/10/09,10:45:25,123356,6991,1343,798,253,6.7,21,36,1,2.832
Label 1   ,64,03/10/09,10:46:25,122148,6950,1365,831,245,5.3,24,37,1,2.832
Label 1   ,65,03/10/09,10:47:25,128058,7603,1551,932,256,6.4,25,36,1,2.832
Label 1   ,66,03/10/09,10:48:25,129755,8121,1673,1012,281,9.2,23,37,1,2.832
Label 1   ,67,03/10/09,10:49:25,133645,9358,2007,1190,292,7.4,26,38,1,2.832
Label 1   ,68,03/10/09,10:50:25,135783,9659,2119,1243,299,7.8,24,37,1,2.832
Label 1   ,69,03/10/09,10:51:26,138344,10499,2287,1349,314,7.8,26,36,1,2.832
Label 1   ,70,03/10/09,10:52:26,143205,10993,2379,1439,473,20,26,36,1,2.832
Label 1   ,71,03/10/09,10:53:26,138745,10761,2327,1359,276,4.2,26,35,1,2.832
Label 1   ,72,03/10/09,10:54:26,128059,9587,1956,1195,275,9.9,26,36,1,2.832
Label 1   ,73,03/10/09,10:55:26,132119,9814,2066,1213,270,7.4,26,35,1,2.832
Label 1   ,74,03/10/09,10:56:26,136684,10245,2123,1204,278,9.5,25,36,1,2.832
Label 1   ,75,03/10/09,10:57:27,138495,11374,2375,1365,280,8.8,26,36,1,2.832
Label 1   ,76,03/10/09,10:58:27,137437,10717,2267,1321,289,7.1,25,36,1,2.832
Label 1   ,77,03/10/09,10:59:27,139779,11452,2443,1421,309,17,24,35,1,2.832
Label 1   ,78,03/10/09,11:00:27,144225,12261,2672,1539,310,11,27,36,1,2.832
Label 1   ,79,03/10/09,11:01:27,147679,12734,2803,1580,450,24,26,35,1,2.832
Label 1   ,80,03/10/09,11:02:27,148945,12941,2886,1741,636,43,27,35,1,2.832
Label 1   ,81,03/10/09,11:03:27,135596,10810,2404,1370,288,7.4,27,34,1,2.832
Label 1   ,82,03/10/09,11:04:28,136031,10729,2356,1349,271,7.4,26,34,1,2.832
Label 1   ,83,03/10/09,11:05:28,133006,10163,2187,1224,277,8.5,25,35,1,2.832
Label 1   ,84,03/10/09,11:06:28,134558,10163,2170,1270,289,8.5,26,35,1,2.832
Label 1   ,85,03/10/09,11:07:28,125059,8344,1745,1035,245,7.4,26,34,1,2.832
Label 1   ,86,03/10/09,11:08:28,123184,7762,1584,939,268,6.7,26,35,1,2.832
Label 1   ,87,03/10/09,11:09:28,108979,6466,1349,818,246,8.1,25,34,1,2.832
Label 1   ,88,03/10/09,11:10:29,121683,7293,1441,895,272,9.5,27,36,1,2.832
Label 1   ,89,03/10/09,11:11:29,117147,6902,1363,842,236,7.4,26,35,1,2.832
Label 1   ,90,03/10/09,11:12:29,115896,6530,1279,828,220,4.9,25,35,1,2.832
Label 1   ,91,03/10/09,11:13:29,104363,5610,1103,727,222,9.2,24,35,1,2.832
Label 1   ,92,03/10/09,11:14:29,93977,4834,993,635,219,5.7,23,35,1,2.832
Label 1   ,93,03/10/09,11:15:29,106714,5633,1136,723,237,10,26,35,1,2.832
Label 1   ,94,03/10/09,11:16:30,100739,5167,1020,658,203,9.5,27,33,1,2.832
Label 1   ,95,03/10/09,11:17:30,101467,5169,1036,627,210,9.5,25,35,1,2.832
Label 1   ,96,03/10/09,11:18:30,115902,6281,1180,760,238,9.2,25,35,1,2.832
Label 1   ,97,03/10/09,11:19:30,108204,5814,1140,684,236,8.1,25,34,1,2.832
Label 1   ,98,03/10/09,11:20:30,124124,7701,1522,971,278,12,27,34,1,2.832
Label 1   ,99,03/10/09,11:21:30,111272,6036,1162,711,213,5.7,27,32,1,2.832
Label 1   ,100,03/10/09,11:22:31,100355,4974,982,630,206,3.9,26,33,1,2.832
Label 1   ,101,03/10/09,11:23:31,81467,3778,785,506,172,6.0,24,33,1,2.832
Label 1   ,102,03/10/09,11:24:31,88170,4427,891,584,210,4.2,26,33,1,2.832
Label 1   ,103,03/10/09,11:25:31,98973,5434,1150,691,214,7.1,26,33,1,2.832
Label 1   ,104,03/10/09,11:26:31,108394,6228,1285,781,228,7.1,25,33,1,2.832
Label 1   ,105,03/10/09,11:27:31,86836,4253,855,574,186,7.1,26,32,1,2.832
Label 1   ,106,03/10/09,11:28:32,82348,3882,786,505,173,5.3,26,32,1,2.832
Label 1   ,107,03/10/09,11:29:32,88852,4268,887,565,196,4.2,25,33,1,2.832
Label 1   ,108,03/10/09,11:30:32,100400,5512,1129,712,197,7.1,24,33,1,2.832
Label 1   ,109,03/10/09,11:31:32,99725,5808,1198,743,216,5.7,26,32,1,2.832
Label 1   ,110,03/10/09,11:32:32,96861,5619,1142,703,200,4.9,27,32,1,2.832
Label 1   ,111,03/10/09,11:33:32,88913,4505,946,595,187,5.3,27,32,1,2.832
Label 1   ,112,03/10/09,11:34:33,90799,4466,899,592,176,4.2,23,32,1,2.832
Label 1   ,113,03/10/09,11:35:33,94715,4692,950,592,201,6.4,25,32,1,2.832
Label 1   ,114,03/10/09,11:36:33,106487,6073,1250,776,220,6.4,26,32,1,2.832
Label 1   ,115,03/10/09,11:37:33,98663,5461,1195,730,196,3.9,23,31,1,2.832
Label 1   ,116,03/10/09,11:38:33,104760,6056,1238,783,198,4.9,26,33,1,2.832
Label 1   ,117,03/10/09,11:39:34,109168,6759,1446,862,219,5.3,27,32,1,2.832
Label 1   ,118,03/10/09,11:40:34,114584,7875,1723,988,231,6.4,27,32,1,2.832
Label 1   ,119,03/10/09,11:41:34,108702,7167,1568,934,206,5.3,26,32,1,2.832
Label 1   ,120,03/10/09,11:42:34,107052,7015,1526,888,195,3.5,27,31,1,2.832
Label 1   ,121,03/10/09,11:43:34,119255,8179,1847,1017,254,4.6,25,31,1,2.832
Label 1   ,122,03/10/09,11:44:34,129255,9873,2140,1243,259,6.4,27,32,1,2.832
Label 1   ,123,03/10/09,11:45:34,125775,9625,2162,1238,234,5.3,27,32,1,2.832
Label 1   ,124,03/10/09,11:46:35,123097,9099,1956,1161,259,9.2,27,32,1,2.832
Label 1   ,125,03/10/09,11:47:35,123460,10015,2313,1306,267,5.3,28,32,1,2.832
Label 1   ,126,03/10/09,11:48:35,128104,10480,2447,1360,252,6.7,29,31,1,2.832
Label 1   ,127,03/10/09,11:49:35,117918,9334,2121,1271,295,7.1,27,31,1,2.832
Label 1   ,128,03/10/09,11:50:35,111634,7965,1779,1094,254,4.2,28,30,1,2.832
Label 1   ,129,03/10/09,11:51:35,105641,6986,1573,992,249,6.0,28,31,1,2.832
Label 1   ,130,03/10/09,11:52:36,100418,6317,1449,942,288,8.1,28,29,1,2.832
Label 1   ,131,03/10/09,11:53:36,90502,5412,1266,832,277,9.5,26,29,1,2.832
Label 1   ,132,03/10/09,11:54:36,89410,5264,1201,771,255,9.2,29,30,1,2.832
Label 1   ,133,03/10/09,11:55:36,100053,5926,1332,883,335,16,28,29,1,2.832
Label 1   ,134,03/10/09,11:56:36,98476,6083,1400,994,504,35,27,29,1,2.832
Label 1   ,135,03/10/09,11:57:36,98979,5788,1270,795,202,4.9,29,29,1,2.832
Label 1   ,136,03/10/09,11:58:36,99496,5795,1270,755,197,2.5,25,30,1,2.832
Label 1   ,137,03/10/09,11:59:37,106185,6547,1497,954,232,5.7,28,30,1,2.832
Label 1   ,138,03/10/09,12:00:37,97039,5607,1310,791,210,4.2,27,30,1,2.832
Label 1   ,139,03/10/09,12:01:37,86844,4797,1055,679,189,3.5,28,29,1,2.832
Label 1   ,140,03/10/09,12:02:37,71050,3439,762,512,166,6.0,28,29,1,2.832
Label 1   ,141,03/10/09,12:03:37,72061,3541,790,557,164,4.2,28,29,1,2.832
Label 1   ,142,03/10/09,12:04:37,70824,3541,779,516,166,4.9,28,28,1,2.832
Label 1   ,143,03/10/09,12:05:38,70171,3482,784,535,222,9.9,29,28,1,2.832
Label 1   ,144,03/10/09,12:06:38,67595,3320,746,499,153,4.2,28,28,1,2.832
Label 1   ,145,03/10/09,12:07:38,68586,3410,752,517,145,3.5,29,27,1,2.832
Label 1   ,146,03/10/09,12:08:38,59010,2844,633,404,130,2.8,28,26,1,2.832
Label 1   ,147,03/10/09,12:09:38,56531,2777,613,421,131,3.9,28,27,1,2.832
Label 1   ,148,03/10/09,12:10:38,50271,2395,543,396,126,3.5,28,26,1,2.832
Label 1   ,149,03/10/09,12:11:39,69370,3826,856,519,133,2.1,26,27,1,2.832
Label 1   ,150,03/10/09,12:12:39,76415,5680,1335,794,162,3.9,28,27,1,2.832
Label 1   ,151,03/10/09,12:13:39,87781,6477,1481,851,185,2.5,28,29,1,2.832
Label 1   ,152,03/10/09,12:14:39,86340,6299,1422,838,179,2.5,28,27,1,2.832
Label 1   ,153,03/10/09,12:15:39,65489,4015,947,556,136,3.5,27,26,1,2.832
Label 1   ,154,03/10/09,12:16:39,68716,3898,918,531,145,4.6,28,26,1,2.832
Label 1   ,155,03/10/09,12:17:40,78807,4451,973,601,166,4.2,29,28,1,2.832
Label 1   ,156,03/10/09,12:18:40,78924,5682,1246,762,158,4.2,28,26,1,2.832
Label 1   ,157,03/10/09,12:19:40,81639,5837,1391,814,177,3.9,28,26,1,2.832
Label 1   ,158,03/10/09,12:20:40,62062,4333,1038,633,151,3.2,28,26,1,2.832
Label 1   ,159,03/10/09,12:21:40,63011,4460,1109,683,150,4.6,28,26,1,2.832
Label 1   ,160,03/10/09,12:22:40,77848,5784,1456,802,180,4.9,28,26,1,2.832
Label 1   ,161,03/10/09,12:23:41,67657,4442,1073,688,172,4.2,28,26,1,2.832
Label 1   ,162,03/10/09,12:24:41,84627,7083,1756,1071,186,3.9,25,27,1,2.832
Label 1   ,163,03/10/09,12:25:41,113278,10684,2649,1468,226,4.2,27,26,1,2.832
Label 1   ,164,03/10/09,12:26:41,91728,7690,1870,1098,186,2.5,28,26,1,2.832
Label 1   ,165,03/10/09,12:27:41,79986,5502,1340,787,167,3.9,27,26,1,2.832
Label 1   ,166,03/10/09,12:28:41,83003,6029,1435,827,175,3.9,27,27,1,2.832
Label 1   ,167,03/10/09,12:29:41,70047,4418,1052,638,156,3.9,26,27,1,2.832
Label 1   ,168,03/10/09,12:30:42,75470,4319,976,607,156,3.9,26,27,1,2.832
Label 1   ,169,03/10/09,12:31:42,71991,4134,954,623,158,4.2,27,26,1,2.832
Label 1   ,170,03/10/09,12:32:42,68674,3844,836,586,161,3.5,27,26,1,2.832
Label 1   ,171,03/10/09,12:33:42,68637,3456,767,492,133,3.9,27,27,1,2.832
Label 1   ,172,03/10/09,12:34:42,66927,4029,921,652,178,4.9,27,26,1,2.832
Label 1   ,173,03/10/09,12:35:42,71187,4044,959,635,167,4.6,25,27,1,2.832
Label 1   ,174,03/10/09,12:36:43,62400,2913,632,443,147,7.4,27,27,1,2.832
Label 1   ,175,03/10/09,12:37:43,68546,3503,785,521,173,6.0,28,26,1,2.832
Label 1   ,176,03/10/09,12:38:43,51560,2236,523,379,136,3.2,28,26,1,2.832
Label 1   ,177,03/10/09,12:39:43,78937,4402,993,644,185,4.6,29,26,1,2.832
Label 1   ,178,03/10/09,12:40:43,63357,3262,743,468,146,5.7,29,26,1,2.832
Label 1   ,179,03/10/09,12:41:43,54438,2659,618,451,138,4.9,27,26,1,2.832
Label 1   ,180,03/10/09,12:42:44,43129,1953,447,342,117,3.9,27,26,1,2.832
Label 1   ,181,03/10/09,12:43:44,39236,1906,494,374,115,3.5,27,26,1,2.832
Label 1   ,182,03/10/09,12:44:44,44947,2125,555,394,131,3.2,27,26,1,2.832
Label 1   ,183,03/10/09,12:45:44,45820,2218,521,386,130,3.9,27,26,1,2.832
Label 1   ,184,03/10/09,12:46:44,49415,2172,541,348,138,4.6,28,26,1,2.832
Label 1   ,185,03/10/09,12:47:44,45597,2090,516,383,139,1.8,27,26,1,2.832
Label 1   ,186,03/10/09,12:48:45,46908,2131,502,357,128,6.4,27,26,1,2.832
Label 1   ,187,03/10/09,12:49:45,44171,1918,469,372,131,2.8,27,25,1,2.832
Label 1   ,188,03/10/09,12:50:45,43650,1878,458,336,121,5.7,27,23,1,2.832
Label 1   ,189,03/10/09,12:51:45,40351,1724,429,337,136,2.8,28,24,1,2.832
Label 1   ,190,03/10/09,12:52:45,47317,2150,494,375,147,6.7,28,24,1,2.832
Label 1   ,191,03/10/09,12:53:45,58893,2848,650,469,154,5.7,28,26,1,2.832
Label 1   ,192,03/10/09,12:54:45,57118,2533,581,429,151,4.2,29,26,1,2.832
Label 1   ,193,03/10/09,12:55:46,67045,3201,710,492,163,3.5,28,26,1,2.832
Label 1   ,194,03/10/09,12:56:46,71407,3371,735,494,167,4.2,29,26,1,2.832
Label 1   ,195,03/10/09,12:57:46,59004,2595,565,414,154,6.0,28,25,1,2.832
Label 1   ,196,03/10/09,12:58:46,62794,2755,643,439,162,3.2,28,26,1,2.832
Label 1   ,197,03/10/09,12:59:46,63393,2720,607,416,144,2.5,27,26,1,2.832
Label 1   ,198,03/10/09,13:00:46,56279,2418,509,410,133,5.7,28,26,1,2.832
Label 1   ,199,03/10/09,13:01:47,52157,2218,497,379,151,7.4,28,26,1,2.832
Label 1   ,200,03/10/09,13:02:47,61036,2651,581,421,159,5.3,27,26,1,2.832
Label 1   ,201,03/10/09,13:03:47,63581,2953,650,483,153,4.9,28,26,1,2.832
Label 1   ,202,03/10/09,13:04:47,74904,3808,882,593,173,4.6,27,26,1,2.832
Label 1   ,203,03/10/09,13:05:47,75164,3595,801,531,179,4.2,28,26,1,2.832
Label 1   ,204,03/10/09,13:06:47,66719,3068,685,493,153,4.9,28,26,1,2.832
Label 1   ,205,03/10/09,13:07:48,69715,3296,726,503,147,5.3,27,26,1,2.832
Label 1   ,206,03/10/09,13:08:48,68018,3275,709,489,160,4.6,27,26,1,2.832
Label 1   ,207,03/10/09,13:09:48,66080,3106,691,488,155,5.7,27,26,1,2.832
Label 1   ,208,03/10/09,13:10:48,71041,3380,700,482,175,7.1,27,27,1,2.832
Label 1   ,209,03/10/09,13:11:48,62061,2858,632,432,157,6.7,27,26,1,2.832
Label 1   ,210,03/10/09,13:12:48,58450,2548,562,395,157,7.4,27,26,1,2.832
Label 1   ,211,03/10/09,13:13:49,51215,2163,493,376,147,5.7,28,26,1,2.832
Label 1   ,212,03/10/09,13:14:49,52563,2280,543,399,165,5.3,28,26,1,2.832
Label 1   ,213,03/10/09,13:15:49,48194,2128,469,384,138,7.1,28,22,1,2.832
Label 1   ,214,03/10/09,13:16:49,42770,1820,428,341,134,7.1,28,24,1,2.832
Label 1   ,215,03/10/09,13:17:49,44113,1947,452,345,144,4.9,28,22,1,2.832
Label 1   ,216,03/10/09,13:18:49,33865,1470,390,328,137,4.2,28,21,1,2.832
Label 1   ,217,03/10/09,13:19:49,40901,1772,418,314,138,4.9,28,22,1,2.832
Label 1   ,218,03/10/09,13:20:50,37040,1687,421,329,131,6.4,28,22,1,2.832
Label 1   ,219,03/10/09,13:21:50,40746,1811,432,355,148,7.4,27,22,1,2.832
Label 1   ,220,03/10/09,13:22:50,37513,1590,420,326,133,5.3,27,22,1,2.832
Label 1   ,221,03/10/09,13:23:50,36563,1624,399,337,142,4.6,28,22,1,2.832
Label 1   ,222,03/10/09,13:24:50,45966,2120,522,366,156,6.4,27,23,1,2.832
Label 1   ,223,03/10/09,13:25:50,48655,2184,482,384,136,6.4,27,22,1,2.832
Label 1   ,224,03/10/09,13:26:51,38897,1692,402,349,143,8.8,28,22,1,2.832
Label 1   ,225,03/10/09,13:27:51,33992,1549,400,321,148,5.7,28,21,1,2.832
Label 1   ,226,03/10/09,13:28:51,38668,1775,410,340,143,4.9,28,22,1,2.832
Label 1   ,227,03/10/09,13:29:51,45658,2383,557,417,145,3.2,28,22,1,2.832
Label 1   ,228,03/10/09,13:30:51,52144,2731,623,467,149,4.9,27,23,1,2.832
Label 1   ,229,03/10/09,13:31:51,43253,2021,503,376,162,3.2,28,22,1,2.832
Label 1   ,230,03/10/09,13:32:51,42330,2200,559,389,153,4.9,28,21,1,2.832
Label 1   ,231,03/10/09,13:33:52,48315,2592,638,450,149,4.6,28,22,1,2.832
Label 1   ,232,03/10/09,13:34:52,47996,2359,542,412,165,4.9,28,22,1,2.832
Label 1   ,233,03/10/09,13:35:52,60976,2795,599,422,146,6.0,28,26,1,2.832
Label 1   ,234,03/10/09,13:36:52,61320,2754,616,442,164,5.7,27,26,1,2.832
Label 1   ,235,03/10/09,13:37:52,46013,1990,474,377,156,4.2,27,22,1,2.832
Label 1   ,236,03/10/09,13:38:52,50255,2205,537,373,154,8.1,28,23,1,2.832
Label 1   ,237,03/10/09,13:39:53,63975,2860,609,416,160,7.4,28,26,1,2.832
Label 1   ,238,03/10/09,13:40:53,47145,2060,467,400,153,9.9,27,24,1,2.832
Label 1   ,239,03/10/09,13:41:53,58190,4870,2078,3227,3798,463,27,22,1,2.832
Label 1   ,240,03/10/09,13:42:53,56245,3082,1012,1240,1094,105,28,22,1,2.832
Label 1   ,241,03/10/09,13:43:53,54856,2321,511,405,168,4.9,27,22,1,2.832
Label 1   ,242,03/10/09,13:44:53,48732,2077,477,393,181,8.1,28,22,1,2.832
Label 1   ,243,03/10/09,13:45:53,38903,2064,638,757,700,66,28,22,1,2.832
Label 1   ,244,03/10/09,13:46:54,46562,2878,1072,1299,1207,108,27,22,1,2.832
Label 1   ,245,03/10/09,13:47:54,52906,3149,1075,1346,1249,118,27,22,1,2.832
Label 1   ,246,03/10/09,13:48:54,53770,2273,540,392,156,8.1,27,22,1,2.832
Label 1   ,247,03/10/09,13:49:54,53876,2381,580,522,310,24,28,25,1,2.832
Label 1   ,248,03/10/09,13:50:54,49386,2108,503,419,220,12,29,22,1,2.832
Label 1   ,249,03/10/09,13:51:54,53470,2288,528,427,160,8.5,28,22,1,2.832
Label 1   ,250,03/10/09,13:52:55,60276,2516,572,426,218,23,27,24,1,2.832
Label 1   ,251,03/10/09,13:53:55,50722,2108,486,388,153,6.4,28,23,1,2.832
Label 1   ,252,03/10/09,13:54:55,52867,2201,500,412,179,9.5,27,23,1,2.832
Label 1   ,253,03/10/09,13:55:55,55544,2333,537,413,240,32,28,25,1,2.832
Label 1   ,254,03/10/09,13:56:55,58204,2468,554,392,173,7.8,27,22,1,2.832
Label 1   ,255,03/10/09,13:57:55,51243,2163,499,412,192,11,28,22,1,2.832
Label 1   ,256,03/10/09,13:58:55,49878,2158,500,376,176,7.8,28,22,1,2.832
Label 1   ,257,03/10/09,13:59:56,51218,2211,505,415,149,7.8,27,22,1,2.832
Label 1   ,258,03/10/09,14:00:56,52351,2196,523,380,153,6.7,27,24,1,2.832
Label 1   ,259,03/10/09,14:01:56,55704,2309,521,400,165,6.4,26,23,1,2.832
Label 1   ,260,03/10/09,14:02:56,53423,2239,518,392,163,4.9,27,22,1,2.832
Label 1   ,261,03/10/09,14:03:56,52481,2262,503,382,161,6.7,28,22,1,2.832
Label 1   ,262,03/10/09,14:04:56,54993,2370,539,417,159,6.4,27,22,1,2.832
Label 1   ,263,03/10/09,14:05:57,57857,2414,553,389,176,8.8,26,23,1,2.832
Label 1   ,264,03/10/09,14:06:57,50908,2155,491,393,165,4.6,28,22,1,2.832
Label 1   ,265,03/10/09,14:07:57,45658,1924,481,352,158,4.6,28,22,1,2.832
Label 1   ,266,03/10/09,14:08:57,48949,2032,487,382,148,5.3,27,23,1,2.832
Label 1   ,267,03/10/09,14:09:57,49091,2035,483,382,159,7.4,27,22,1,2.832
Label 1   ,268,03/10/09,14:10:57,47656,2053,465,374,159,5.3,27,22,1,2.832
Label 1   ,269,03/10/09,14:11:57,49913,2072,487,396,157,7.1,27,22,1,2.832
Label 1   ,270,03/10/09,14:12:58,49058,2051,498,389,174,7.1,28,22,1,2.832
Label 1   ,271,03/10/09,14:13:58,44157,1862,444,368,156,4.9,28,22,1,2.832
Label 1   ,272,03/10/09,14:14:58,48379,2045,484,372,149,4.9,26,22,1,2.832
Label 1   ,273,03/10/09,14:15:58,50526,2110,527,392,168,6.4,27,23,1,2.832
Label 1   ,274,03/10/09,14:16:58,48771,2173,539,448,259,19,27,22,1,2.832
Label 1   ,275,03/10/09,14:17:58,46445,2008,457,364,151,4.2,27,22,1,2.832
Label 1   ,276,03/10/09,14:18:59,43116,1826,432,362,160,7.4,28,22,1,2.832
Label 1   ,277,03/10/09,14:19:59,39579,1708,411,345,161,6.4,28,22,1,2.832
Label 1   ,278,03/10/09,14:20:59,42431,1764,427,340,153,4.6,27,22,1,2.832
Label 1   ,279,03/10/09,14:21:59,44326,1892,437,384,168,7.1,29,23,1,2.832
Label 1   ,280,03/10/09,14:22:59,47500,2021,475,403,168,8.1,28,22,1,2.832
Label 1   ,281,03/10/09,14:23:59,45717,1916,467,383,185,7.8,27,22,1,2.832
Label 1   ,282,03/10/09,14:24:59,47988,1960,474,387,160,4.9,28,22,1,2.832
Label 1   ,283,03/10/09,14:26:00,47108,1947,480,364,152,6.4,28,24,1,2.832
Label 1   ,284,03/10/09,14:27:00,46393,2050,458,417,249,27,26,22,1,2.832
Label 1   ,285,03/10/09,14:28:00,45064,1926,451,378,161,3.5,27,22,1,2.832
Label 1   ,286,03/10/09,14:29:00,48484,2034,470,380,170,5.3,27,22,1,2.832
Label 1   ,287,03/10/09,14:30:00,52740,2251,533,392,161,5.7,27,22,1,2.832
Label 1   ,288,03/10/09,14:31:00,53071,2214,510,399,168,6.4,26,26,1,2.832
Label 1   ,289,03/10/09,14:32:01,51402,2119,495,377,171,7.1,25,23,1,2.832
Label 1   ,290,03/10/09,14:33:01,49714,2114,490,377,170,6.7,27,22,1,2.832
Label 1   ,291,03/10/09,14:34:01,54542,2572,636,531,280,16,27,22,1,2.832
Label 1   ,292,03/10/09,14:35:01,54003,2547,638,573,385,20,27,23,1,2.832
Label 1   ,293,03/10/09,14:36:01,55290,2375,561,417,170,6.7,27,22,1,2.832
Label 1   ,294,03/10/09,14:37:01,57916,2533,585,412,164,5.3,27,22,1,2.832
Label 1   ,295,03/10/09,14:38:01,55341,2407,579,528,313,23,26,23,1,2.832
Label 1   ,296,03/10/09,14:39:02,51517,2188,500,394,176,5.3,26,22,1,2.832
Label 1   ,297,03/10/09,14:40:02,50406,2073,477,386,143,4.2,26,23,1,2.832
Label 1   ,298,03/10/09,14:41:02,55168,2338,524,424,166,4.6,25,23,1,2.832
Label 1   ,299,03/10/09,14:42:02,56826,2452,549,397,172,4.6,27,24,1,2.832
Label 1   ,300,03/10/09,14:43:02,58834,2476,563,395,193,3.9,26,26,1,2.832
Label 1   ,301,03/10/09,14:44:02,61463,2648,590,436,183,3.9,27,26,1,2.832
Label 1   ,302,03/10/09,14:45:03,54974,2280,555,426,182,5.3,28,23,1,2.832
Label 1   ,303,03/10/09,14:46:03,56111,2367,553,416,157,3.2,26,26,1,2.832
Label 1   ,304,03/10/09,14:47:03,59520,2516,576,433,184,6.4,23,25,1,2.832
Label 1   ,305,03/10/09,14:48:03,60490,2502,586,447,182,6.4,25,27,1,2.832
Label 1   ,306,03/10/09,14:49:03,61154,2596,601,461,178,6.4,25,27,1,2.832
Label 1   ,307,03/10/09,14:50:03,67322,2888,669,475,193,5.3,22,27,1,2.832
Label 1   ,308,03/10/09,14:51:03,63922,2781,633,479,166,3.5,26,24,1,2.832
Label 1   ,309,03/10/09,14:52:04,59587,2716,664,501,231,9.5,27,26,1,2.832
Label 1   ,310,03/10/09,14:53:04,63361,2668,589,421,180,6.7,27,26,1,2.832
Label 1   ,311,03/10/09,14:54:04,66091,2793,604,448,171,2.5,27,26,1,2.832
Label 1   ,312,03/10/09,14:55:04,65223,2658,569,444,179,6.4,27,27,1,2.832
Label 1   ,313,03/10/09,14:56:04,63304,2702,581,434,184,5.7,26,27,1,2.832
Label 1   ,314,03/10/09,14:57:04,65708,2787,612,436,185,3.5,26,27,1,2.832
Label 1   ,315,03/10/09,14:58:05,62824,2688,584,445,172,3.5,27,26,1,2.832
Label 1   ,316,03/10/09,14:59:05,62175,2631,589,460,176,4.9,26,27,1,2.832